星链-3133 (STARLINK-3133 )

导读 | 星芒AI

STARLINK-3133 是 SpaceX 星链计划中的一颗低轨通信卫星,属于星链第三代组网卫星。该卫星旨在为全球用户提供高速、低延迟的互联网服务,支持偏远地区和高需求区域的网络接入。它采用先进推进系统和自主避障技术,以确保运行安全与轨道管理。作为星链星座的重要组成部分,STARLINK-3133 有助于提升全球互联网覆盖能力,并推动 SpaceX 在商业航天和全球通信领域的布局。

基本信息
目录编号:
49416
目录名称:
STARLINK-3133
国际标识:
2021-104J
轨道中心:
EARTH
卫星名称:
星链-3133
卫星全名:
星链-3133 (STARLINK-3133 )
卫星状态:
在轨 (已飞行1497 天)
发射日期:
2021-11-13 UTC
国别 :
美国 (US)
星等 :
--
轨道信息
数据来源 国际轨道数据
星历时间: 2025-12-19T05:29:19+0800
1天前
查看轨道信息
半长轴: 6917.889km
偏心率: 0.0001559
轨道倾角: 53.216°
近地点辐角 87.817°
升交点赤经 231.820°
平近点角 272.301°
近地点: 538.675km
远地点: 540.833km
周期: 95.438分钟
每日圈数: 15.088372
详细信息
固有亮度:
5
最大亮度:
2.5
卫星平台:
Starlink v1.5
覆盖范围:
全球
运营商:
太空探索技术公司
运营商所在国:
美国
制造商(研发单位):
太空探索技术公司
制造商所在国:
美国
使用方式:
暂无
卫星简介
星链(Starlink)计划是由太空探索技术公司(SpaceX)提出的一个巨型低轨卫星互联网星座项目,计划在2019年至2024年间在太空搭建由约1.2万颗卫星组成的“星链”网络,其中1584颗将部署在地球上空550千米处的近地轨道,并从2020年开始工作。该卫星仍在工作。
2D轨道图
3D轨道图
轨道高度分析图
轨道倾角分析图
轨道综合分析图
查看轨道综合分析图